Wilmington, OH

3:27 PM EDT on July 24, 2017 (GMT -0400)
Airborne

Weather History for KILN - November, 2012

Change the Weather History Date:

Wednesday, November 21, 2012

  Actual Average (KFFO) Record (KFFO)
Temperature  
Mean Temperature 50 °F -  
Max Temperature 62 °F 48 °F 66 °F (1999)
Min Temperature 37 °F 31 °F 11 °F (2014)
Degree Days  
Heating Degree Days 16    
Moisture  
Dew Point 37 °F    
Average Humidity 69    
Maximum Humidity 89    
Minimum Humidity 39    
Precipitation  
Precipitation 0.00 in - - ()
Sea Level Pressure  
Sea Level Pressure 30.23 in    
Wind  
Wind Speed 2 mph (ENE)    
Max Wind Speed 7 mph    
Max Gust Speed -    
Visibility 9 miles    
Events Snow    
Averages and records for this station are not official NWS values.
T = Trace of Precipitation, MM = Missing Value Source: NWS Daily Summary

Daily Weather History Graph

Daily Weather History Graph

Search for Another Location

Airport or City:

Trip Planner

Search our weather history database for the weather conditions in past years. The results will help you decide how hot, cold, wet, or windy it might be!

Date:

Astronomy

Nov. 21, 2012 Rise Set
Actual Time 7:26 AM EST 5:15 PM EST
Civil Twilight 6:57 AM EST 5:44 PM EST
Nautical Twilight 6:24 AM EST 6:17 PM EST
Astronomical Twilight 5:52 AM EST 6:49 PM EST
Moon 1:30 PM EST (11/21) 12:46 AM EST (11/21)
Length of Visible Light 10h 47m
Length of Day
9h 49m
First Quarter, 61% of the Moon is Illuminated
Nov 21
First Quarter
Nov 28
Full
Dec 6
Last Quarter
Dec 13
New
Dec 20
First Quarter

Hourly Weather History & Observations

Time (EST) Temp. Windchill Dew Point Humidity Pressure Visibility Wind Dir Wind Speed Gust Speed Precip Events Conditions
12:54 AM 43.0 °F 41.3 °F 36.0 °F 76% 30.16 in 10.0 mi ENE 3.5 mph - N/A   Partly Cloudy
1:54 AM 44.1 °F 42.5 °F 36.0 °F 73% 30.16 in 10.0 mi ESE 3.5 mph - N/A   Mostly Cloudy
2:54 AM 41.0 °F - 37.0 °F 86% 30.17 in 10.0 mi Calm Calm - N/A   Mostly Cloudy
3:54 AM 42.1 °F 37.7 °F 37.0 °F 82% 30.18 in 9.0 mi NNE 6.9 mph - N/A   Overcast
4:54 AM 42.1 °F 40.2 °F 37.0 °F 82% 30.19 in 9.0 mi NE 3.5 mph - N/A   Mostly Cloudy
5:54 AM 39.0 °F - 36.0 °F 89% 30.22 in 7.0 mi Calm Calm - N/A   Clear
6:54 AM 37.0 °F - 34.0 °F 89% 30.23 in 7.0 mi Calm Calm - N/A   Clear
7:54 AM 37.9 °F - 34.0 °F 86% 30.25 in 6.0 mi Calm Calm - 0.00 in Snow Light Snow
8:54 AM 46.0 °F - 39.0 °F 76% 30.25 in 7.0 mi Calm Calm - N/A   Clear
9:54 AM 51.1 °F - 41.0 °F 68% 30.27 in 9.0 mi NNE 3.5 mph - N/A   Clear
10:54 AM 55.9 °F - 37.9 °F 51% 30.27 in 10.0 mi ENE 4.6 mph - N/A   Clear
11:54 AM 57.9 °F - 37.9 °F 47% 30.24 in 10.0 mi SSE 4.6 mph - N/A   Clear
12:54 PM 61.0 °F - 36.0 °F 39% 30.23 in 10.0 mi SSW 3.5 mph - N/A   Clear
1:54 PM 62.1 °F - 37.0 °F 39% 30.23 in 10.0 mi Calm Calm - N/A   Clear
2:54 PM 61.0 °F - 39.0 °F 44% 30.22 in 10.0 mi Calm Calm - N/A   Clear
3:54 PM 61.0 °F - 39.0 °F 44% 30.22 in 10.0 mi NNW 3.5 mph - N/A   Clear
4:54 PM 57.9 °F - 39.0 °F 49% 30.23 in 10.0 mi Calm Calm - N/A   Clear
5:54 PM 52.0 °F - 37.9 °F 59% 30.25 in 10.0 mi Calm Calm - N/A   Clear
6:54 PM 48.0 °F - 37.9 °F 68% 30.26 in 10.0 mi Calm Calm - N/A   Clear
7:54 PM 43.0 °F - 37.0 °F 80% 30.26 in 8.0 mi Calm Calm - N/A   Clear
8:54 PM 42.1 °F - 37.0 °F 82% 30.25 in 7.0 mi Calm Calm - N/A   Clear
9:54 PM 42.1 °F - 37.0 °F 82% 30.25 in 8.0 mi Calm Calm - N/A   Clear
10:54 PM 39.0 °F - 35.1 °F 86% 30.25 in 7.0 mi Calm Calm - N/A   Clear
11:54 PM 39.0 °F - 35.1 °F 86% 30.25 in 6.0 mi Calm Calm - N/A   Clear